Regional Weather Roundup
Issued by NWS

Home | Current Version | Previous Version | Text Only | Print | Product List | Glossary Off
Versions: 1 2 3 4 5 6 7 8 9 10 11 12 13 14 15 16 17 18 19 20 21 22 23 24 25 26 27 28 29 30 31 32 33 34 35 36 37 38 39 40 41 42 43 44 45 46 47 48 49 50

857
ASUS43 KLMK 240402
RWRKY
KENTUCKY REGIONAL WEATHER ROUNDUP
NATIONAL WEATHER SERVICE LOUISVILLE KY
1100 PM EST THU NOV 23 2017

NOTE "FAIR" INDICATES FEW OR NO CLOUDS BELOW 12,000 FEET
WITH NO SIGNIFICANT WEATHER AND/OR OBSTRUCTIONS TO VISIBILITY.

KYZ001>023-026-027-061>063-070>075-240500-
WESTERN AND SOUTH CENTRAL KENTUCKY

CITY           SKY/WX    TMP DP  RH WIND       PRES   REMARKS
PADUCAH        CLEAR     33  24  69 CALM      30.03S
HENDERSON      CLEAR     32  26  78 S3        30.03
OWENSBORO      CLEAR     35  27  72 SE3       30.04F
HOPKINSVILLE   CLEAR     35  25  67 CALM      30.04R
BOWLING GREEN  CLEAR     33  27  78 CALM      30.06R
GLASGOW        NOT AVBL
$$

KYZ024-025-028>034-038-045-046-053-240500-
NORTH CENTRAL KENTUCKY

CITY           SKY/WX    TMP DP  RH WIND       PRES   REMARKS
LOUISVILLE/SDF CLEAR     37  27  67 SE5       30.03F WCI  33
LOUISVILLE/LOU CLEAR     35  28  75 SE3       30.04S
FORT KNOX      CLEAR     34  24  68 CALM      30.01F
$$

KYZ035>037-039>044-047>052-055>060-089>105-240500-
NORTHEAST KENTUCKY

CITY           SKY/WX    TMP DP  RH WIND       PRES   REMARKS
LEXINGTON      CLEAR     31  23  72 CALM      30.03S
COVINGTON      CLEAR     32  28  85 CALM      30.03R
FRANKFORT      CLEAR     28  23  81 CALM      30.03R
$$

KYZ054-064>069-076>088-106>120-240500-
SOUTHEAST KENTUCKY

CITY           SKY/WX    TMP DP  RH WIND       PRES   REMARKS
JACKSON        CLEAR     41  18  39 S3        30.03R
LONDON         CLEAR     31  25  78 CALM      30.04R
SOMERSET       NOT AVBL
MIDDLESBORO    CLEAR     31  28  90 CALM      30.06S
MONTICELLO     CLEAR     26  23  88 W8        30.07R WCI  18
$$





USA.gov is the U.S. government's official web portal to all federal, state and local government web resources and services.